Location: Buisson
(44.2787°N, 4.9969°E)
Time: 07:05:12
(UTC+00:00)

IDEFIX/ARIANE 42P - Pass Details

Date: 18 April 2021
Orbit: 785 x 803 km, 98.4° (Epoch: 06 May)

Event Time Altitude Azimuth Distance (km) Brightness Sun altitude
Rises 01:36:01 0° 24° (NNE) 3,294 7.0 -28.9°
Reaches altitude 10° 01:38:40 10° 35° (NE) 2,363 6.0 -28.6°
Maximum altitude 01:43:08 28° 95° (E) 1,441 4.1 -28.1°
Enters shadow 01:44:40 24° 124° (ESE) 1,578 4.1 -28.0°
